Tracking 23728 objects as of 23-Sep-2021
HD Live streaming from Space Station
objects crossing your sky now

NOAA 5

Track NOAA 5 now!
10-day predictions
NOAA 5 is classified as:


NORAD ID: 9057
Int'l Code: 1976-077A
Perigee: 1,515.7 km
Apogee: 1,530.8 km
Inclination: 102.1 °
Period: 116.3 minutes
Semi major axis: 7894 km
RCS: 1.7201 m2 (large)
Launch date: July 29, 1976
Source: United States (US)
Launch site: AIR FORCE WESTERN TEST RANGE (AFWTR)
aabbcc
Your satellite tracking list
Your tracking list is empty




NASA's NSSDC Master Catalog

Two Line Element Set (TLE):
1  9057U 76077A   21266.18097890 -.00000043  00000-0  16777-4 0  9997
2  9057 102.0537 232.4676 0009610 274.6561  95.8046 12.37763107 40898
Source of the keplerian elements: AFSPC